Theta_e
326 329 323 321 326 329 335 330 333 329 325 327 324 333 336 338 338 345 332 332 332 334 333 332 327 325 324 318 316 324 324 324 323 323 323 324 324 325 326 327 327 326 325 324 325 325 324 323 323
326 328 322 325 324 335 333 328 332 329 332 328 334 335 336 340 335 333 332 332 333 333 332 332 325 324 322 319 317 322 323 323 322 322 322 323 323 324 325 325 326 326 327 327 326 324 323 322 323
328 328 327 324 326 332 331 328 332 336 332 332 338 337 336 338 334 332 332 332 334 333 333 329 326 324 322 320 317 319 321 322 322 321 322 322 322 323 322 324 326 327 327 326 325 324 322 324 326
328 331 325 322 326 326 328 330 337 335 335 335 336 339 336 334 332 334 333 334 333 332 332 328 326 323 322 320 318 317 320 321 322 321 322 321 321 323 324 323 324 325 325 326 323 322 323 324 323
329 332 333 326 322 325 329 335 335 336 336 337 336 339 337 334 333 333 334 333 332 333 331 329 326 322 320 319 317 320 321 321 321 319 319 319 319 319 322 324 322 324 323 323 322 322 323 321 322
333 331 337 334 324 326 335 335 333 335 336 336 337 338 338 335 334 333 332 332 332 332 331 327 323 319 319 317 315 317 318 316 316 317 316 318 317 318 319 321 323 322 320 320 321 321 321 320 320
334 336 336 336 329 330 336 332 334 336 336 337 335 339 337 335 334 333 332 331 332 331 329 326 322 319 319 316 314 312 312 313 313 313 313 314 314 315 317 319 321 322 318 319 320 320 320 320 321
329 330 330 331 330 331 332 331 332 336 337 333 334 338 338 334 335 334 332 331 331 329 326 322 322 322 320 317 314 313 312 313 312 312 312 313 314 314 315 318 319 321 317 318 319 318 317 319 320
323 331 333 330 331 328 329 332 331 331 335 334 333 335 334 333 333 333 332 330 329 326 322 319 322 321 320 318 314 315 313 313 313 314 312 315 316 315 316 315 317 320 317 318 318 316 317 318 317
327 336 333 322 324 324 330 332 332 334 335 335 334 333 334 332 332 331 331 330 329 324 320 318 321 321 319 317 317 316 315 315 315 314 314 314 314 313 313 315 316 319 318 317 316 315 315 315 313
327 336 321 317 317 325 329 330 331 333 335 334 335 334 332 332 332 331 331 330 329 325 319 318 321 321 320 318 318 317 316 315 315 314 314 314 314 314 315 316 317 318 317 316 316 315 314 313 311
322 320 318 317 320 325 328 330 331 332 329 328 331 332 331 331 331 331 331 330 329 323 319 318 321 321 321 319 318 317 316 315 315 315 314 314 314 314 315 315 316 317 317 316 315 313 310 306 304
319 317 316 316 319 324 325 328 328 330 325 327 331 331 331 331 330 332 331 331 328 324 321 320 321 321 320 319 318 317 316 315 315 315 314 314 314 314 315 315 316 316 316 317 313 311 307 305 302
319 316 317 317 318 319 325 324 324 324 328 330 333 332 332 332 331 331 331 330 330 327 324 322 321 321 320 319 319 318 316 315 315 315 314 314 314 315 314 314 315 316 317 316 312 312 307 304 301
315 317 317 317 317 317 318 321 322 323 328 331 331 331 330 331 332 331 331 330 329 329 325 322 320 320 320 319 319 318 317 315 316 315 313 313 313 313 313 314 314 314 314 314 313 312 307 302 300
322 321 326 319 318 316 318 327 318 320 328 330 330 331 331 331 330 330 330 330 330 331 325 319 317 318 319 319 319 318 317 316 316 315 313 312 312 312 313 313 313 313 313 313 313 312 305 298 296
327 335 333 323 318 319 322 331 320 318 323 326 328 330 330 330 330 329 329 329 330 330 327 320 318 317 317 316 316 316 315 315 315 314 313 312 311 311 311 312 312 312 313 312 313 311 305 298 294
334 336 334 331 324 322 324 328 321 320 320 322 323 324 327 328 328 328 328 329 329 329 328 324 320 317 316 316 315 314 314 313 313 312 312 311 311 310 310 311 311 311 312 312 312 310 306 298 294
331 333 334 327 322 325 329 327 325 324 322 321 323 322 322 322 322 324 326 327 325 326 327 326 322 320 317 316 316 314 313 312 312 312 311 310 310 310 310 309 310 310 310 311 312 309 307 296 293
330 331 330 324 319 323 322 319 316 316 317 317 317 318 319 319 319 319 320 322 324 324 324 325 324 322 320 318 317 317 316 314 311 311 311 309 309 310 309 309 309 309 309 310 311 310 301 297 294
323 331 327 327 319 317 317 317 317 316 315 316 316 316 315 315 315 315 315 316 317 319 321 322 322 322 321 319 318 317 314 312 311 311 310 309 310 309 309 308 308 308 308 308 308 309 307 300 298
324 320 321 319 319 324 317 324 319 317 316 314 313 313 312 312 312 313 313 313 314 314 316 318 319 319 319 318 317 317 316 316 315 314 313 309 310 310 309 308 307 307 307 307 307 308 307 304 299
318 317 317 317 317 316 317 326 319 317 315 313 312 312 312 312 313 313 313 313 313 313 313 313 314 315 316 316 317 317 316 315 315 314 313 308 310 310 308 308 307 305 305 305 305 306 306 305 304
315 315 315 315 315 323 317 319 320 317 313 312 311 311 311 313 314 313 313 313 312 312 312 312 312 312 313 314 315 315 315 315 314 313 313 309 307 309 309 308 306 305 304 304 304 304 304 304 304
315 315 319 321 324 319 315 316 317 313 312 311 310 310 311 311 310 310 310 311 312 312 311 311 310 311 312 312 312 313 314 313 313 313 313 312 310 306 310 310 308 305 303 303 302 302 302 302 304
315 314 313 314 316 315 313 315 314 310 310 309 309 310 309 308 308 308 308 308 309 310 311 310 310 310 310 311 311 311 312 313 312 311 311 311 310 309 309 311 309 306 304 302 301 299 299 299 300
315 315 313 313 313 313 311 311 310 309 309 309 309 309 308 307 307 307 307 307 306 307 307 308 308 308 308 309 309 310 310 310 311 311 310 310 310 309 307 307 309 308 304 301 300 298 297 297 296
313 312 316 316 316 312 310 311 313 311 310 310 309 309 308 307 306 306 305 305 305 305 305 305 305 305 305 305 306 307 307 308 308 309 309 309 309 308 307 305 304 307 305 301 300 297 296 295 294
314 315 314 314 314 310 309 308 311 312 311 310 309 308 308 307 306 305 304 304 303 301 300 301 301 301 302 302 302 303 304 305 305 306 306 306 307 307 306 305 302 301 304 302 299 298 296 294 293
309 314 312 309 313 313 312 310 309 312 311 308 308 308 307 305 304 304 304 302 299 298 297 297 297 298 299 299 299 300 300 301 302 303 304 304 305 304 304 304 303 300 300 300 299 297 295 293 292
Wind_Speed
17 8 3 5 4 6 10 4 2 7 8 2 8 1 6 12 8 4 14 11 16 17 14 11 10 11 11 10 10 10 11 11 11 11 10 11 10 11 11 13 11 11 11 11 11 13 13 13 12
17 8 3 3 5 10 7 6 8 9 8 9 8 6 3 6 6 9 13 16 15 15 13 11 10 11 10 11 10 10 10 10 10 10 10 10 10 10 11 12 12 11 10 11 12 13 12 13 13
14 5 4 4 6 10 8 9 10 9 10 9 4 6 3 4 11 12 15 16 16 13 13 11 10 9 9 9 9 8 9 9 10 9 9 9 9 10 10 10 11 11 12 11 12 12 12 12 14
8 6 4 5 11 3 4 8 15 11 6 2 5 8 8 3 10 12 18 16 14 12 13 10 9 7 7 8 8 8 8 9 9 9 8 7 8 9 11 9 9 10 10 10 11 11 11 14 14
5 4 7 8 8 2 3 10 15 14 8 8 2 6 10 9 8 19 17 14 13 12 12 10 8 7 7 7 7 7 8 8 7 8 7 5 6 5 8 10 8 9 9 10 9 10 12 12 13
3 3 7 10 9 4 7 10 11 10 10 6 7 10 6 9 17 16 15 12 11 12 11 9 7 6 6 6 6 6 6 6 6 5 6 6 5 5 4 7 8 8 7 7 9 11 12 12 14
4 5 11 13 10 8 8 9 9 8 10 8 10 6 5 11 16 15 14 12 11 11 10 9 7 5 5 5 5 5 5 5 6 5 5 5 5 4 2 4 7 6 6 6 8 11 10 10 14
3 3 3 6 11 6 11 9 2 9 9 6 1 4 6 11 15 15 13 12 11 10 8 8 7 5 5 5 5 5 5 5 6 6 6 6 8 7 5 5 2 5 5 5 7 7 8 9 11
2 5 8 8 11 8 12 8 3 2 6 4 3 6 7 20 15 15 14 12 11 9 8 7 6 5 4 4 4 5 5 7 8 8 9 7 3 4 5 3 2 4 4 5 5 4 8 8 9
3 8 9 3 4 8 15 10 10 7 8 5 7 4 21 20 18 18 16 15 12 10 9 7 5 4 4 3 3 3 4 4 5 5 5 4 4 3 3 3 1 2 4 4 5 5 5 4 5
3 4 5 2 1 8 13 9 5 5 7 4 8 10 14 19 18 18 17 15 15 11 10 8 6 4 3 2 2 2 3 4 4 5 5 5 4 4 3 1 1 2 1 2 3 3 3 4 5
1 2 4 3 2 8 11 11 7 7 5 6 2 13 15 16 17 18 17 13 12 13 11 9 7 5 3 2 2 2 3 3 4 4 5 5 5 5 3 2 2 3 4 3 2 3 6 8 8
2 1 2 3 5 5 7 6 3 6 3 2 6 11 12 15 17 16 14 11 11 12 12 11 9 6 5 3 2 2 2 2 2 4 5 4 5 4 5 2 2 3 3 3 3 5 6 8 9
4 1 5 3 6 5 7 5 4 3 3 6 8 8 11 15 17 15 12 11 12 11 12 11 11 9 7 5 4 3 3 2 0 2 4 4 4 4 5 4 1 2 4 2 4 6 5 7 7
9 5 6 5 2 3 0 5 4 4 5 7 6 8 8 13 19 18 14 12 12 10 9 11 11 11 10 9 8 6 5 4 3 2 1 3 3 4 6 4 2 3 6 8 6 10 10 7 6
3 4 5 3 1 1 3 8 7 4 6 6 7 8 9 11 15 15 14 12 11 7 9 10 11 13 11 9 8 6 6 5 5 3 1 2 3 4 5 5 3 3 2 7 10 12 9 7 6
4 5 9 5 1 3 3 7 5 1 4 6 6 7 7 9 12 15 13 14 13 9 11 12 12 13 12 10 10 8 10 8 6 4 3 3 3 3 5 6 5 4 5 7 12 14 13 11 8
5 9 9 9 3 2 3 1 4 3 4 5 6 7 7 8 10 12 13 14 14 12 12 11 13 12 13 14 11 9 9 10 10 7 6 5 3 4 5 7 7 5 7 8 12 16 16 14 12
9 8 10 7 4 2 2 2 6 5 4 8 8 8 7 7 8 10 12 14 15 15 14 14 14 13 12 10 9 11 10 11 13 12 9 7 6 6 5 7 8 7 9 11 13 16 19 13 15
6 13 5 5 4 2 3 6 7 9 6 7 8 8 8 7 7 8 11 13 16 17 16 15 14 14 14 12 11 9 6 8 10 11 14 12 10 10 9 8 8 9 8 10 12 17 19 13 22
5 6 8 5 4 2 2 6 8 11 12 12 12 9 8 8 7 6 8 9 11 12 13 14 14 14 14 12 11 9 7 7 8 11 13 16 17 15 15 12 9 10 11 13 16 21 24 19 26
5 6 8 9 6 2 3 4 7 9 12 13 11 10 9 9 8 9 10 10 8 7 8 10 12 13 13 14 14 13 15 15 14 16 14 16 17 18 18 17 14 13 14 15 17 20 25 21 20
6 5 8 4 2 4 4 1 6 2 10 13 14 14 13 11 10 10 12 11 9 8 5 6 8 11 12 14 16 17 18 18 17 17 16 18 20 21 21 20 19 17 17 18 19 19 24 29 24
12 9 7 2 1 2 2 2 5 2 7 11 12 13 13 13 13 15 13 12 11 9 6 4 4 8 11 14 16 19 21 20 18 19 18 19 22 23 25 23 23 20 19 20 22 23 24 27 31
1 3 3 2 1 2 1 1 6 9 12 11 9 10 11 12 13 12 12 10 9 9 9 7 6 7 8 13 16 19 21 21 23 24 22 21 19 21 27 27 27 25 23 22 22 23 24 26 27
3 2 1 1 3 4 2 4 6 9 8 5 4 6 9 10 10 10 10 10 10 9 9 9 9 10 9 12 15 18 19 21 22 23 24 24 22 22 28 29 29 29 28 23 23 23 24 24 27
2 1 2 4 1 1 3 5 3 7 9 4 4 6 7 10 10 11 12 11 12 13 14 13 14 13 11 12 14 16 18 20 22 22 22 23 22 22 26 28 30 31 31 28 25 22 23 22 23
3 3 2 1 3 3 4 4 6 15 16 8 4 3 5 8 10 9 10 11 11 12 13 14 14 15 16 15 15 16 18 19 22 23 25 25 24 24 23 24 28 31 32 30 29 24 23 23 24
2 1 1 2 2 2 1 3 8 17 16 10 3 1 6 9 10 7 8 11 13 15 16 17 17 17 17 16 17 18 20 21 21 23 25 25 25 26 25 24 26 29 33 33 32 30 28 26 28
3 2 4 3 4 1 1 4 5 13 14 6 3 2 7 7 8 7 10 8 10 12 14 16 17 17 17 17 17 18 19 20 20 22 24 25 27 26 26 26 27 28 31 33 34 33 29 28 28
Wind_Direction
339 333 280 232 225 237 214 163 51 138 138 83 103 65 69 29 7 44 134 136 136 127 132 122 98 73 54 50 51 56 52 47 45 43 44 48 47 38 31 32 35 50 43 51 51 55 45 47 47
333 334 243 250 247 201 210 131 175 149 111 132 111 118 97 80 57 125 135 138 137 134 131 124 100 79 62 52 54 58 56 54 53 51 50 53 49 39 31 30 37 53 51 57 62 53 49 50 51
324 268 249 226 222 230 206 174 132 126 136 159 112 24 59 76 135 131 138 141 129 133 122 125 110 88 65 53 52 55 60 60 57 58 62 60 51 39 39 30 38 52 55 63 60 52 56 51 55
337 190 219 243 216 82 36 151 142 140 150 174 124 97 89 130 128 131 142 143 137 131 119 124 116 95 69 50 44 47 60 67 64 65 60 55 50 45 37 43 38 56 62 62 61 55 58 58 60
300 270 225 226 222 84 192 136 155 153 153 152 172 110 110 101 124 136 149 147 140 131 126 120 120 100 76 48 52 67 69 73 69 59 47 45 69 59 33 44 46 60 56 64 63 64 66 64 73
284 280 221 199 184 158 134 153 164 157 147 127 136 123 112 128 143 148 151 144 142 134 131 123 120 109 70 52 62 75 72 67 64 60 56 58 75 92 67 50 45 64 60 66 68 71 72 74 79
265 254 238 210 165 166 163 167 172 160 160 161 131 127 112 158 152 151 152 148 141 138 138 133 117 99 62 58 58 57 57 56 50 43 43 46 45 59 81 73 54 63 59 87 76 78 80 98 97
278 261 244 204 190 160 160 163 152 171 137 85 286 171 162 157 147 153 153 148 142 144 143 139 128 120 94 72 57 52 54 45 34 26 27 36 33 35 35 88 41 77 52 99 96 89 101 108 104
310 248 214 195 197 147 162 159 151 9 130 174 134 49 101 152 157 161 152 153 154 152 151 145 141 128 108 97 50 42 40 34 32 27 32 34 27 25 22 37 114 100 94 119 122 134 111 101 89
265 241 214 46 65 168 173 180 151 167 156 172 160 69 133 151 165 166 173 172 174 172 167 166 160 144 122 104 92 72 42 45 43 38 34 25 17 16 32 18 71 152 145 163 158 128 88 50 45
225 261 100 107 186 168 159 159 159 178 184 180 201 163 162 164 178 179 187 183 186 177 177 178 172 158 136 130 97 47 31 28 25 29 25 22 14 12 12 344 317 235 183 134 120 106 73 68 61
187 272 336 130 122 150 164 137 164 195 59 352 320 156 176 179 186 191 192 192 177 181 184 184 182 170 160 139 100 74 33 26 14 9 19 12 359 356 359 11 313 271 244 218 156 99 94 86 85
33 9 60 108 130 125 129 144 114 157 78 146 131 154 182 187 193 209 195 192 184 187 189 190 188 183 181 161 156 126 100 33 9 359 360 2 351 348 333 350 335 303 255 222 139 128 111 95 86
155 329 128 133 125 116 149 133 187 126 138 144 158 178 186 194 199 212 201 208 197 199 199 190 190 188 191 188 188 195 188 181 132 346 342 350 342 334 312 321 327 303 221 202 174 155 130 110 99
128 120 188 113 67 94 76 155 185 117 161 159 173 180 221 203 202 208 218 221 210 208 210 202 197 198 201 200 199 202 209 199 199 208 308 325 338 327 302 302 298 280 257 195 183 162 181 167 156
205 185 178 102 187 86 247 158 126 161 183 187 187 206 199 216 216 223 227 228 238 217 218 213 213 210 209 210 209 213 214 209 228 231 207 301 321 300 282 276 259 259 264 213 199 204 190 177 160
205 170 178 136 70 132 243 103 126 169 224 234 216 217 221 226 218 215 227 232 248 234 229 225 225 226 221 217 223 226 231 231 229 237 237 252 301 279 273 274 260 247 223 223 209 211 206 189 171
162 162 158 143 125 188 146 198 137 182 234 253 255 242 232 233 245 238 229 236 236 233 227 226 224 222 225 231 231 241 236 238 237 231 232 251 286 284 275 265 260 248 236 225 223 206 209 203 179
145 135 123 100 83 249 188 311 320 302 256 276 270 269 265 264 271 259 247 236 237 235 232 229 226 225 221 223 223 235 244 247 249 244 242 239 249 269 274 256 255 243 235 237 222 212 211 187 192
129 117 101 96 77 294 77 27 57 35 13 344 326 321 320 310 292 265 265 257 248 244 244 245 242 240 234 235 240 252 267 253 255 252 248 242 243 250 245 241 244 245 243 239 233 218 200 200 204
39 147 151 122 125 92 333 88 76 80 63 57 61 54 41 30 6 341 312 288 280 271 265 261 257 253 251 244 253 253 262 262 255 256 250 244 241 246 246 241 245 236 235 234 231 228 219 202 216
115 69 109 127 172 168 348 132 89 110 67 41 34 40 32 29 15 17 17 7 351 327 299 276 265 259 250 244 243 244 247 252 249 244 248 241 249 246 244 243 240 242 230 232 229 232 231 212 208
113 101 92 88 139 175 31 129 137 175 53 58 61 52 44 41 41 42 38 33 28 24 343 292 275 262 252 245 243 247 251 257 263 260 246 245 250 250 247 245 244 242 233 229 228 225 225 219 214
126 104 85 92 237 136 53 318 143 66 102 87 65 55 56 62 63 58 50 38 31 26 14 340 285 261 247 242 243 247 253 259 261 258 248 251 254 254 251 250 248 247 241 234 230 227 226 229 224
103 165 113 137 154 80 44 275 76 113 119 91 75 61 68 66 59 48 39 28 16 13 6 354 335 300 266 248 245 245 247 252 254 256 256 252 252 254 257 257 255 252 250 246 239 236 233 230 228
60 337 321 169 167 131 182 154 135 124 133 103 76 82 75 51 36 35 28 16 5 357 349 348 341 322 304 279 272 268 266 261 260 261 259 262 258 258 267 266 260 256 252 247 244 240 241 237 234
96 48 8 96 36 220 125 107 124 184 177 188 129 106 54 23 19 14 22 20 11 1 355 347 338 332 325 309 297 287 280 274 271 272 270 269 267 265 267 268 266 262 258 252 250 243 244 246 248
5 89 154 318 145 185 151 217 161 188 190 193 148 100 22 13 13 23 24 18 9 1 353 349 345 338 332 324 314 304 295 286 281 278 274 275 273 271 268 268 267 264 261 255 253 247 248 246 249
154 284 9 59 352 170 193 222 156 182 182 188 150 32 356 8 12 28 14 12 21 19 10 1 356 352 349 342 330 317 305 297 289 281 277 273 272 271 270 265 265 263 261 256 251 250 250 244 246
280 226 213 219 190 195 9 259 162 174 180 168 196 218 357 10 23 27 20 30 21 9 2 353 348 341 334 330 325 318 312 305 296 288 283 280 274 270 266 263 258 258 261 256 250 244 242 240 240